sat.trackr.live / text

‹ back to catalog

STARLINK-2034

NORAD 47352 · 2021-005D

PAYLOAD ACTIVE UNKNOWN

§ Identity

Operator
Country
US
Launch date
2021-01-20
Launch site
AFETR
Launch vehicle
Mass (kg)
RCS (m²)

Purposes: comms

External: N2YO · Heavens-Above · Gunter

§ Orbital elements

Epoch: 2026-09-09T08:09:12.779136Z

Period
94.01 min
Inclination
53.1594°
Eccentricity
0.0001319
Mean motion
15.31697402 rev/d
Perigee alt
469.8 km
Apogee alt
471.7 km
Semi-major
6,848.9 km
B*
-1.4661e-5
RAAN
278.0713°
Arg perigee
80.3294°
Mean anomaly
279.7856°
Rev number
31,131

§ Raw data

STARLINK-20341 47352U 21005D   26252.33973124 -.00000820  00000+0 -14661-4 0  99912 47352  53.1594 278.0713 0001319  80.3294 279.7856 15.31697402311319

JSON: /api/v1/satellites/47352 · /tle

For live sub-satellite position, see the globe view (requires WebGL).

§ Visibility from observer

Set your observer location to see the next 7 days of passes ≥ 10°. The values pass through the URL so the page stays shareable.

No JS? Fill the form by hand. The geolocation button needs JavaScript.